Theta_e
336 336 338 340 341 341 342 345 346 346 348 349 350 351 352 354 355 357 357 358 359 360 362 362 362 363 363 362 361 361 362 362 363 361 359 357 356 355 353 352 353 353 351 349 350 350 351 353 353 352 351 349 347 347 348 348 346 345 347 349 348 346 346
333 334 336 339 340 341 344 346 347 347 348 349 350 352 352 354 356 356 356 358 359 360 361 362 362 362 362 362 362 362 361 361 361 361 359 357 355 355 353 351 352 352 353 351 351 353 353 352 352 351 349 349 347 347 346 346 346 345 343 346 345 345 346
333 334 335 337 339 341 344 346 347 348 349 349 350 351 352 355 357 357 357 357 358 360 361 362 362 362 362 362 361 361 360 359 360 359 357 355 353 351 351 351 351 351 351 352 352 351 352 352 352 351 348 347 345 346 345 344 345 344 344 346 345 343 345
334 334 335 338 341 344 345 346 347 347 349 349 350 351 354 356 358 358 358 358 358 359 359 361 362 361 362 361 361 359 359 360 359 357 356 354 353 351 349 349 350 350 350 350 350 350 350 352 351 350 349 347 346 345 344 343 343 345 345 347 344 344 344
335 335 336 337 339 342 343 344 346 348 348 349 351 354 356 357 357 358 359 359 357 358 359 360 360 362 362 361 359 359 359 358 356 355 354 354 354 352 349 346 347 347 349 350 350 350 350 350 349 350 348 348 346 346 346 346 345 347 345 347 344 344 342
333 335 336 336 337 339 341 343 345 346 348 348 351 354 354 355 355 355 356 358 358 358 360 360 360 361 359 359 359 359 359 357 355 354 353 352 352 349 347 347 346 347 347 348 349 349 349 349 348 348 347 345 343 343 343 345 344 345 345 346 345 343 341
334 335 336 337 338 339 341 343 344 346 349 350 352 354 353 353 353 354 355 356 357 357 358 358 359 359 359 360 359 358 356 355 353 351 350 349 349 349 348 347 347 347 347 349 348 349 348 348 349 349 347 345 345 344 344 346 344 346 347 347 346 346 345
335 335 338 339 338 339 340 343 344 346 349 351 351 352 352 353 353 354 354 355 356 356 356 356 357 360 360 360 358 357 356 354 352 350 348 346 347 347 348 347 346 346 347 346 347 348 347 348 348 348 347 345 347 347 346 347 347 345 347 346 345 344 345
334 338 338 338 339 339 341 343 345 347 350 351 352 353 353 353 353 353 354 355 356 356 356 356 357 359 360 359 358 356 355 352 349 349 346 345 345 343 342 343 346 346 344 343 343 346 346 346 346 347 347 346 346 347 347 347 347 347 347 345 345 343 342
334 337 339 340 340 340 343 345 347 349 351 352 353 354 353 354 354 354 354 355 355 355 356 357 357 358 359 358 357 356 355 351 346 345 343 341 341 340 341 341 343 345 344 343 343 343 345 346 346 346 346 345 346 346 346 347 347 347 346 346 345 344 342
334 338 340 339 341 343 345 344 347 349 351 353 354 353 355 355 355 354 355 355 355 355 356 357 358 357 357 356 354 354 353 350 345 342 341 339 338 338 339 340 340 341 341 342 342 343 344 344 346 346 345 343 344 345 346 346 347 346 345 345 345 345 343
336 337 339 340 342 344 343 345 348 350 352 353 353 352 355 355 355 355 355 356 356 356 356 356 357 357 356 355 354 353 351 346 341 341 340 337 336 337 337 337 339 340 341 341 340 341 341 342 342 343 344 344 345 346 347 347 347 346 345 343 344 345 344
335 337 338 337 341 343 347 348 347 349 352 352 351 353 354 354 354 354 356 357 356 357 357 358 358 358 356 355 353 352 348 341 340 339 339 337 336 338 338 337 337 338 339 339 338 337 338 340 341 342 343 345 345 345 346 345 345 345 345 345 346 346 344
335 335 337 340 341 342 343 346 349 350 351 351 352 354 354 354 354 355 356 356 357 357 357 357 358 358 357 355 354 351 342 341 345 343 341 341 342 341 340 339 339 339 340 339 337 336 337 337 339 340 342 343 343 344 344 344 344 344 345 345 345 345 345
331 332 335 336 339 342 344 345 348 349 350 351 352 353 354 354 355 357 358 357 358 356 357 359 359 358 357 355 353 349 344 345 346 346 345 344 344 341 341 342 341 340 340 339 338 336 337 338 338 339 340 342 342 342 343 342 343 343 343 344 345 346 344
331 332 333 335 338 340 343 345 347 349 351 352 352 353 353 354 356 356 356 355 356 358 358 359 359 359 357 355 353 350 347 345 344 344 344 344 341 340 340 337 338 338 337 337 337 336 336 335 337 338 339 339 340 341 341 341 342 336 329 333 343 345 344
332 332 333 336 339 339 342 344 346 348 349 350 352 353 353 354 356 356 354 355 355 357 358 358 359 358 357 355 354 352 348 345 343 343 343 343 341 338 338 338 337 336 335 335 336 335 336 336 337 337 337 336 337 338 339 340 339 328 326 327 329 338 343
333 335 335 336 338 338 340 341 344 345 347 348 350 352 353 355 355 355 354 355 355 356 357 357 357 356 358 357 355 350 347 346 345 344 344 343 340 338 336 336 335 334 334 334 335 336 337 336 336 337 336 336 337 336 336 337 329 325 325 326 326 329 339
335 336 336 340 339 339 338 338 341 344 345 347 348 350 352 355 353 354 355 356 357 358 356 356 357 358 358 358 356 350 347 346 345 344 342 337 336 335 336 335 334 333 334 335 339 339 337 337 336 335 337 338 336 335 335 336 330 325 324 324 324 325 329
337 338 338 338 338 338 340 341 341 343 344 348 349 349 352 354 352 354 356 357 359 357 357 357 357 358 358 358 355 350 347 346 344 340 336 335 336 338 337 336 335 336 337 339 340 339 339 339 338 337 336 335 334 334 336 336 329 324 322 321 322 323 327
335 336 337 338 338 337 342 343 345 344 344 344 344 348 350 351 353 356 356 358 357 358 358 358 357 357 357 356 354 351 347 345 344 341 340 339 339 339 338 337 338 339 340 340 339 338 338 334 334 335 334 334 335 335 335 336 326 323 321 319 319 321 326
333 333 334 336 340 342 344 341 342 341 344 344 347 349 349 351 352 352 352 355 356 356 356 357 356 355 355 354 353 350 347 345 344 343 341 340 339 338 338 339 338 338 337 338 338 340 339 337 334 333 333 335 336 335 335 336 325 321 320 318 318 321 332
332 333 335 340 339 340 344 344 344 343 349 348 347 347 347 349 350 350 351 352 353 355 354 354 354 354 354 353 352 350 347 345 344 342 341 340 339 338 338 338 338 336 334 332 331 330 331 332 333 335 336 337 337 335 334 335 329 322 318 317 317 320 335
335 338 339 339 343 344 347 347 347 349 345 347 347 348 349 350 349 352 352 352 353 353 353 353 353 354 354 353 353 351 348 347 345 343 341 341 340 339 338 337 337 335 333 329 326 325 327 330 334 338 338 337 337 336 334 336 331 319 314 313 315 322 336
335 338 341 341 341 341 342 346 346 344 347 347 344 347 350 350 350 351 352 352 350 351 351 351 353 353 353 353 353 352 349 348 346 344 342 341 339 337 335 334 332 329 327 326 326 328 333 334 334 336 337 337 336 333 334 335 329 314 315 314 313 321 334
340 339 339 341 343 346 347 347 347 345 344 344 345 347 351 351 352 352 351 349 348 348 349 351 352 353 353 353 352 351 350 348 346 344 342 339 334 334 332 329 327 327 328 332 335 338 340 339 337 336 337 336 336 336 335 335 336 331 314 313 312 315 334
341 342 342 342 342 344 345 345 345 344 344 346 347 346 348 349 349 348 348 347 346 346 346 349 350 350 351 350 349 349 348 347 345 343 342 337 333 330 329 330 332 333 333 334 336 338 338 338 339 338 337 335 334 333 331 331 331 329 316 312 312 312 318
338 339 340 342 343 343 343 344 344 344 343 346 347 347 348 349 347 346 346 345 345 346 345 347 348 349 349 348 347 347 346 343 343 342 339 336 332 328 327 330 331 332 334 335 336 335 336 339 340 337 334 332 333 331 331 330 328 330 320 311 308 307 311
337 337 338 339 340 341 342 341 339 339 340 342 344 346 347 347 346 344 344 344 344 343 345 346 347 347 347 347 346 345 343 341 339 338 336 335 333 330 330 330 330 331 334 334 335 335 337 340 337 335 334 333 331 330 330 330 331 321 326 309 305 303 307
339 337 335 336 338 338 339 339 339 339 341 342 344 346 346 347 344 343 343 343 343 343 345 346 346 347 345 344 343 341 340 338 338 337 336 334 332 332 331 331 332 333 336 335 337 338 339 338 336 334 332 330 326 325 325 327 330 320 317 313 306 304 305
338 336 335 336 336 338 338 337 337 338 338 340 341 342 344 346 344 342 342 341 342 343 344 345 345 344 343 341 341 339 338 338 338 336 334 332 331 331 331 332 334 333 335 338 340 340 337 335 334 330 329 327 324 325 325 325 326 327 318 312 307 304 302
337 340 338 338 340 340 340 340 340 340 338 338 339 340 344 346 346 345 344 341 342 343 344 344 343 342 341 341 340 339 338 337 336 336 333 332 333 333 332 332 331 331 334 337 337 336 335 333 329 328 326 325 327 329 330 326 326 326 324 315 310 307 304
334 336 337 337 339 341 341 340 337 336 337 337 337 339 340 343 344 347 342 341 341 342 344 343 341 339 339 338 337 338 337 335 334 333 334 335 333 332 332 331 333 334 337 338 337 337 335 330 327 325 324 327 329 332 331 329 327 327 327 326 323 322 316
336 336 337 337 338 340 341 340 338 339 340 342 340 341 341 340 341 341 340 339 339 341 342 341 339 338 337 336 336 335 335 335 335 335 334 336 336 335 336 338 338 338 338 337 337 335 331 329 328 328 328 328 330 331 330 328 328 328 327 325 325 325 323
338 339 340 338 336 338 339 341 342 342 342 341 339 339 339 338 337 338 338 337 338 340 339 338 337 338 337 336 336 335 335 334 335 336 336 336 337 332 328 331 336 337 337 328 326 331 332 332 331 332 332 332 332 330 329 330 329 330 318 326 315 321 323
338 339 339 338 338 340 339 338 339 339 338 338 337 337 337 337 337 338 338 338 339 339 338 338 337 338 337 337 336 336 335 335 335 335 335 335 332 325 314 302 295 302 322 324 309 302 299 301 329 331 332 330 331 329 330 330 331 306 301 299 299 299 299
336 337 337 337 337 337 338 339 338 337 337 337 335 335 334 336 337 338 338 339 339 338 339 340 338 337 337 336 336 335 336 336 336 334 335 334 330 327 321 316 309 294 293 299 300 297 293 295 298 303 315 328 325 312 300 302 298 297 296 294 293 293 293
333 335 335 335 335 336 337 337 337 337 337 336 335 333 334 334 336 338 337 340 340 340 341 340 338 336 336 335 336 334 335 334 334 333 332 332 331 328 325 323 322 315 296 292 294 294 292 292 295 301 305 308 314 312 312 299 295 294 294 294 293 293 292
Wind_Speed
18 19 18 15 15 16 17 17 18 17 16 16 16 18 17 15 15 14 13 14 16 16 15 15 15 14 16 15 16 15 14 14 12 10 10 9 8 8 9 8 9 9 9 9 9 9 9 9 9 9 8 9 9 8 8 8 7 7 6 6 5 4 5
18 18 19 17 17 17 17 17 17 16 16 16 15 17 16 16 15 15 15 16 17 17 15 14 15 14 15 14 14 15 16 16 15 9 9 8 8 8 9 9 9 9 8 8 7 7 8 9 9 10 10 9 9 9 9 8 8 8 7 6 5 4 4
18 18 18 18 18 17 18 17 18 17 16 16 16 16 17 16 17 19 17 16 17 16 14 15 15 15 14 15 14 16 18 17 14 12 12 10 11 12 10 9 9 9 9 8 7 7 7 8 9 10 11 10 10 9 9 9 8 8 7 6 6 5 5
17 19 20 20 19 18 19 19 20 19 18 19 19 19 19 19 18 17 17 17 17 15 16 15 15 15 14 15 15 17 19 15 12 12 12 11 11 10 9 8 7 8 8 9 8 7 7 8 10 10 11 10 10 9 9 9 9 8 7 6 5 6 5
16 16 15 16 18 15 17 17 18 18 19 20 20 19 19 18 18 15 15 16 17 18 18 16 13 13 12 14 15 15 13 13 12 11 10 10 10 9 10 11 9 9 9 8 8 8 8 9 10 9 9 9 9 9 9 8 8 8 7 6 6 6 6
14 15 15 16 17 18 19 20 20 21 20 20 19 18 17 18 17 19 18 17 16 16 14 15 15 14 15 18 15 10 10 11 11 11 11 10 10 9 10 10 10 10 9 9 8 9 10 10 11 10 10 10 10 9 9 9 8 8 7 6 6 6 6
13 16 15 16 17 18 19 19 20 20 19 19 18 17 18 17 18 19 18 18 19 18 18 18 17 15 14 13 12 12 13 13 11 12 11 11 10 9 10 8 7 6 6 6 8 8 10 10 10 10 9 10 9 9 8 8 8 7 6 6 6 6 6
13 14 16 17 18 18 17 18 19 18 17 16 15 16 17 16 16 18 18 17 18 18 17 18 16 14 13 13 12 14 14 14 12 11 10 12 11 10 7 7 8 10 9 10 8 9 9 8 8 8 9 10 9 9 9 8 8 8 6 6 7 7 5
13 14 16 17 17 17 16 17 17 17 18 18 18 17 18 17 17 17 18 18 17 18 18 17 16 14 13 12 12 14 14 12 11 11 11 11 8 10 10 11 11 9 11 10 9 8 8 8 8 8 8 9 8 9 9 8 8 7 6 6 7 8 7
13 13 12 12 12 12 12 14 14 13 14 14 14 14 16 16 16 16 16 17 16 18 18 16 15 14 14 13 14 15 13 12 10 10 8 7 7 11 12 11 10 8 9 10 10 10 8 8 8 8 8 9 9 9 9 8 7 7 6 7 7 7 8
10 10 8 12 13 13 13 14 15 14 14 13 13 14 14 15 15 16 15 15 16 15 16 15 14 13 14 16 16 15 13 12 10 11 9 12 12 13 13 11 9 8 9 9 9 9 8 8 8 8 9 9 9 9 8 8 7 7 7 6 7 7 7
8 10 11 12 12 12 16 15 13 12 13 12 14 15 14 14 15 15 14 15 15 14 14 15 14 15 14 15 15 14 13 11 14 14 16 14 13 14 12 10 9 8 8 9 9 9 9 8 8 8 9 8 9 8 7 6 6 7 7 8 7 6 6
10 9 11 14 14 12 8 9 15 15 14 14 16 16 14 15 16 15 14 15 15 14 14 14 14 14 14 14 15 11 12 15 17 19 19 17 16 14 14 13 13 13 11 11 11 11 9 8 8 7 8 8 7 7 6 6 6 6 6 7 7 6 6
6 8 9 8 9 12 16 15 13 14 15 15 15 14 14 14 14 14 14 14 14 14 13 12 13 13 12 11 11 11 15 18 18 19 19 16 14 14 14 12 11 11 12 11 11 11 12 11 8 7 7 7 6 5 5 5 6 6 7 7 7 6 6
12 13 12 13 15 14 13 14 14 15 15 15 15 15 15 13 13 12 11 12 13 14 15 13 11 12 11 10 10 11 13 12 13 12 13 11 9 9 9 9 9 10 9 10 9 9 8 9 9 7 7 5 5 5 5 6 6 5 6 7 8 7 7
13 13 15 16 16 16 14 14 12 13 13 13 15 15 15 13 13 13 14 14 13 13 12 10 10 10 10 11 11 11 11 13 11 11 12 14 15 8 5 7 8 9 11 12 11 10 9 9 10 7 7 6 5 5 4 5 4 7 12 9 7 7 6
13 15 15 15 13 13 12 12 12 12 14 15 15 16 15 14 13 12 13 13 13 11 11 11 10 11 11 11 12 11 12 13 13 14 14 10 11 15 10 8 10 12 12 12 13 12 9 9 8 6 6 7 5 5 4 4 6 12 11 12 13 9 7
14 14 15 16 14 13 12 13 14 15 16 16 15 15 13 11 11 10 12 10 11 12 12 12 12 13 12 12 10 11 14 13 13 13 11 8 8 12 19 20 15 12 13 13 13 11 9 9 9 8 6 5 3 5 7 7 9 12 13 13 14 12 8
14 14 17 14 14 15 16 16 16 16 15 14 13 13 12 11 10 9 11 13 13 11 11 12 12 12 11 11 10 12 12 12 12 9 8 13 12 17 17 19 19 17 13 12 7 8 8 7 8 5 4 2 5 9 8 6 9 12 14 14 14 14 11
9 7 6 8 12 14 14 11 10 11 13 11 11 11 10 11 13 14 13 12 10 11 11 10 10 10 10 10 10 11 12 11 11 11 14 16 16 15 15 15 17 14 9 6 6 5 5 5 7 5 4 5 6 5 7 9 11 13 15 14 14 14 9
7 5 6 8 10 13 11 11 10 10 10 12 12 11 13 13 12 10 10 10 10 10 9 9 9 10 10 10 10 11 11 13 13 13 12 12 14 13 14 15 13 7 6 7 9 9 7 7 7 6 7 7 7 7 10 10 13 14 13 14 13 11 8
10 7 7 7 8 6 8 12 13 13 11 11 12 11 12 12 11 10 11 10 10 10 10 10 10 10 9 10 10 12 12 13 13 12 12 13 14 15 15 13 11 8 8 8 8 7 6 7 7 10 9 9 9 8 9 8 12 11 14 14 13 9 6
9 10 10 11 12 10 8 8 11 12 11 10 10 10 10 9 10 10 9 10 9 10 10 10 10 10 10 10 10 11 12 13 13 13 13 14 15 16 15 14 11 12 11 11 10 9 8 9 9 8 8 8 7 7 8 9 11 15 15 12 9 6 5
0 3 5 7 8 10 9 7 7 7 8 8 7 5 6 8 9 9 9 9 9 9 9 9 10 9 9 9 9 10 11 12 12 12 13 12 15 17 14 12 11 12 12 13 12 11 12 12 9 7 6 7 6 8 9 9 11 10 7 6 8 7 6
6 7 7 6 6 8 8 6 7 8 8 8 7 5 6 8 9 9 8 7 8 8 9 9 8 8 8 7 8 8 10 10 11 11 12 14 8 5 7 6 7 7 8 10 10 11 8 6 7 5 4 6 8 9 9 7 6 10 8 10 11 9 6
10 10 10 9 10 10 11 10 11 11 10 9 7 6 7 8 8 7 7 6 6 7 7 6 5 5 5 6 6 7 7 8 9 11 11 7 8 10 12 13 13 13 11 9 8 6 6 5 4 5 6 6 7 7 7 4 2 1 8 11 11 10 5
14 13 12 12 12 11 11 11 11 11 10 7 8 8 8 8 8 7 7 6 6 5 5 4 4 5 5 6 7 7 8 7 10 11 10 9 9 10 11 11 10 9 10 10 7 6 6 7 6 7 5 4 5 5 6 7 9 7 8 8 9 10 9
16 16 14 12 8 9 11 11 12 12 11 8 8 9 8 8 9 7 7 6 6 6 5 5 5 6 7 7 8 8 8 9 9 11 10 10 10 12 11 8 8 10 10 8 8 8 8 7 5 4 3 4 5 6 4 5 7 5 7 6 6 8 10
14 14 13 13 13 10 11 11 11 12 10 8 9 7 8 10 10 8 7 7 7 7 7 7 7 7 8 8 8 8 9 10 12 12 9 9 9 10 9 8 8 8 9 10 9 8 8 7 6 6 7 6 4 5 5 3 3 6 7 5 3 4 7
11 12 13 14 14 14 16 14 12 11 9 8 8 7 6 7 7 6 5 6 6 7 7 7 7 8 8 8 8 9 10 11 12 10 9 10 10 9 10 10 10 9 8 9 8 7 7 6 7 6 6 7 7 5 4 3 4 5 4 6 6 5 6
11 11 10 11 12 11 13 13 13 11 8 6 6 5 5 6 8 8 7 5 6 7 8 8 8 8 8 8 9 9 10 10 9 8 9 9 10 10 12 13 12 11 10 8 7 7 7 8 6 9 9 7 6 6 5 4 4 4 3 4 5 4 4
10 10 11 10 8 8 11 12 12 12 11 7 6 5 4 5 8 10 8 9 8 8 8 8 9 8 8 8 9 10 10 11 10 9 9 10 9 10 10 12 13 12 9 7 7 8 7 6 8 7 6 6 6 6 6 7 6 5 4 4 5 5 6
10 10 10 9 6 4 6 9 8 7 9 9 6 6 6 7 5 6 8 9 9 9 9 9 9 9 9 9 10 10 10 11 9 9 9 9 8 9 9 9 8 8 7 7 8 7 6 6 7 7 6 5 6 5 5 4 3 4 4 4 5 5 6
8 9 9 8 6 6 6 5 7 7 7 7 7 7 7 8 8 9 10 10 9 9 8 8 9 10 11 12 11 10 10 10 11 9 8 9 8 8 6 5 5 6 7 8 7 6 5 6 6 5 5 5 5 5 4 4 5 5 5 5 5 5 4
8 7 6 7 6 5 3 3 3 4 3 4 3 2 2 1 4 6 8 8 7 7 8 8 10 10 11 11 10 9 9 9 9 6 7 7 6 5 4 1 3 3 2 4 4 2 3 5 5 5 5 6 6 6 5 5 7 7 5 4 4 4 5
7 6 5 3 2 3 3 3 2 2 3 3 3 3 3 4 5 6 8 8 8 9 9 10 10 9 8 8 9 9 9 9 9 7 5 6 5 5 5 9 10 7 2 2 5 6 5 3 2 2 3 4 3 2 3 6 4 12 12 9 8 7 9
5 4 4 2 2 2 2 3 4 3 2 2 2 2 2 3 5 6 7 8 9 10 10 10 8 7 7 7 7 9 9 8 8 9 6 6 6 6 6 5 6 11 11 7 5 7 9 7 7 6 3 2 4 5 10 11 13 12 11 10 8 8 9
6 5 5 4 3 2 1 1 1 3 4 3 3 3 4 5 6 7 8 8 9 9 8 9 8 7 7 6 6 7 8 8 8 9 9 6 6 6 6 6 6 4 7 9 9 9 8 7 6 3 5 6 10 8 5 8 9 12 11 10 10 9 8
Wind_Direction
209 211 211 204 199 198 197 194 195 195 193 192 194 196 197 196 197 196 199 201 205 209 204 196 198 199 204 210 213 213 213 213 208 193 195 199 196 186 189 189 189 186 184 183 186 181 181 172 171 176 179 183 188 189 192 195 198 201 202 203 207 210 219
204 206 205 203 202 202 201 196 196 199 196 193 192 194 197 195 193 198 202 203 205 207 204 198 199 202 203 204 211 211 212 214 210 192 194 193 191 191 189 185 188 186 184 185 179 179 174 174 176 179 183 186 192 191 193 194 200 203 204 203 208 211 215
202 202 202 201 202 201 197 196 197 197 195 195 193 192 195 195 194 198 201 202 204 205 203 198 200 201 200 205 205 210 214 212 200 193 195 194 192 195 193 187 188 184 186 183 178 177 180 177 183 185 186 188 194 192 193 195 200 204 205 200 205 211 211
196 196 197 196 196 195 193 195 196 195 195 194 194 194 194 195 195 199 200 200 201 202 204 204 199 199 198 199 205 212 211 201 190 192 195 191 189 187 184 188 187 184 180 185 180 178 180 185 188 192 190 191 192 193 195 198 200 203 207 202 207 214 220
199 195 194 197 199 195 199 201 198 195 197 197 196 194 194 195 194 197 199 201 203 203 204 203 200 201 202 202 211 209 197 191 192 193 188 188 185 180 183 187 188 191 186 177 179 180 179 187 192 194 194 196 195 194 197 200 201 200 206 205 216 214 226
190 187 195 195 196 200 200 201 196 194 197 197 198 197 200 198 196 200 201 199 202 205 201 198 197 193 199 208 207 197 190 193 193 187 186 185 185 184 184 183 183 187 182 184 181 191 186 189 193 193 196 198 202 202 204 205 208 205 206 207 218 224 229
184 190 194 195 199 201 200 199 197 197 198 200 199 197 198 198 198 203 202 201 201 199 198 199 200 196 200 197 198 192 194 198 194 191 186 185 184 181 186 177 166 172 183 175 195 192 193 193 192 190 193 196 200 206 205 208 213 207 209 211 219 219 225
187 189 193 195 199 197 197 195 194 196 196 197 198 200 198 199 202 205 204 205 202 203 203 204 202 198 195 193 191 195 198 198 191 185 179 180 183 186 164 146 177 183 175 188 191 191 194 192 189 191 192 196 198 202 206 209 213 215 209 215 219 224 217
197 193 195 200 198 197 195 191 189 190 188 189 193 194 195 198 202 204 205 205 204 204 205 202 201 195 189 190 190 195 196 188 181 180 180 178 178 177 173 185 189 181 182 180 183 187 191 184 192 190 191 198 199 203 207 207 212 211 208 212 220 228 228
193 194 201 196 194 192 190 182 180 183 185 187 191 192 195 198 203 206 207 208 207 208 205 202 201 196 188 188 195 195 192 183 168 162 151 172 182 188 187 191 191 182 179 182 182 181 188 183 188 190 194 201 202 204 208 204 206 207 205 213 221 226 232
192 190 182 190 188 185 177 180 184 188 190 189 188 192 196 201 204 206 209 209 210 211 208 206 204 201 192 193 197 195 190 179 137 119 159 190 187 187 185 185 181 180 193 186 187 184 178 182 188 194 196 203 202 207 208 207 203 207 211 215 222 227 234
188 181 188 189 184 178 185 190 184 184 189 189 191 196 198 202 206 208 209 210 210 210 208 208 205 204 196 193 196 192 180 143 134 154 185 189 184 181 181 178 172 175 190 193 191 185 185 182 191 197 200 202 204 205 207 202 204 208 216 222 222 222 234
191 188 184 190 187 188 168 172 189 190 187 191 194 197 199 202 205 208 208 210 209 210 211 209 207 203 199 196 195 181 150 139 157 180 194 192 188 182 182 179 174 173 189 197 198 188 176 189 194 200 201 200 197 201 200 202 203 210 215 222 221 221 230
187 180 188 181 181 182 191 190 185 185 189 192 196 197 200 202 205 205 205 205 205 209 211 208 204 199 195 191 186 152 152 170 181 190 193 189 174 178 184 175 165 171 185 192 192 187 186 177 186 202 211 203 193 194 196 202 211 214 217 222 228 228 228
193 195 187 189 194 194 185 183 185 187 188 193 194 197 199 202 204 204 206 208 209 211 213 210 203 199 193 176 160 161 172 176 188 194 200 163 147 183 183 162 164 176 180 188 186 187 173 160 167 192 211 208 193 199 204 213 219 213 215 224 229 230 233
197 192 192 196 197 196 189 187 180 181 185 187 192 195 196 199 200 202 205 208 209 210 213 208 200 188 194 186 174 173 170 174 184 194 201 182 165 166 163 187 196 191 195 194 192 188 180 172 181 184 201 198 207 209 209 219 221 227 225 227 235 232 227
195 197 200 203 200 186 180 180 179 179 187 192 194 195 196 198 199 201 208 210 210 209 206 206 199 195 194 190 181 169 168 178 189 195 201 180 175 150 151 197 218 207 199 192 190 187 178 167 172 167 197 210 213 207 210 221 229 233 228 227 232 238 237
194 198 202 205 193 180 178 182 180 185 191 194 194 194 194 190 188 190 202 203 207 210 206 208 208 204 200 197 168 162 176 186 190 196 197 145 144 152 181 196 207 212 203 192 189 181 163 167 166 162 181 206 222 239 236 235 238 233 231 229 227 225 231
197 197 206 193 177 182 186 187 187 188 189 191 192 190 191 180 178 183 191 204 208 205 204 203 203 202 198 192 169 170 178 183 186 174 104 107 143 187 197 196 199 205 200 195 173 145 159 166 132 131 122 131 233 248 247 251 246 234 237 231 227 225 224
223 219 197 188 186 186 187 180 181 183 181 175 174 177 167 174 192 200 201 200 191 193 200 198 201 200 195 179 171 173 174 175 167 152 159 168 178 185 194 203 208 207 189 152 125 104 107 119 100 101 159 206 230 244 255 253 249 238 235 230 227 227 219
233 233 206 189 183 194 184 173 156 152 159 172 169 173 188 193 198 188 185 186 188 189 185 188 190 195 191 183 176 166 169 173 174 172 175 175 182 189 191 200 203 167 131 140 134 133 126 121 123 179 191 208 213 223 238 247 245 242 238 238 231 226 207
208 196 201 193 190 194 165 170 168 168 165 166 177 181 185 190 188 187 191 188 188 186 188 187 193 198 192 184 174 171 173 177 180 180 181 182 186 190 195 196 183 150 138 128 115 97 102 130 173 203 198 200 213 216 235 244 251 250 243 234 230 215 216
196 191 185 179 180 175 172 175 171 172 161 167 175 175 185 179 177 181 177 180 183 177 183 188 194 198 192 190 179 174 175 179 180 182 186 186 190 198 197 191 169 166 152 142 139 145 174 199 187 182 199 201 205 214 241 250 250 242 236 234 227 203 230
211 167 158 155 153 152 161 162 149 133 155 157 159 152 156 158 164 167 171 176 171 171 179 187 196 195 191 191 179 172 173 179 180 183 189 191 195 203 197 177 168 164 151 140 152 177 199 200 188 179 182 193 198 210 225 236 242 224 228 233 211 220 232
99 100 99 108 125 130 134 123 115 117 98 104 113 113 143 159 162 164 166 162 164 172 179 190 192 187 191 188 175 168 170 176 180 186 194 208 200 95 94 107 119 123 137 156 182 194 188 182 190 190 182 194 213 207 216 230 209 173 186 195 197 205 221
90 89 86 87 92 105 111 115 107 99 96 94 99 128 140 144 148 141 136 136 151 167 176 176 174 171 174 166 157 162 164 172 178 190 193 145 130 140 140 146 154 163 164 170 180 171 153 147 158 190 201 200 207 207 215 241 357 251 209 195 196 199 212
78 81 88 93 99 105 100 95 94 95 95 100 120 129 134 134 124 115 114 123 133 144 153 148 147 155 157 153 158 161 166 165 183 181 168 137 137 135 143 154 162 161 156 163 166 162 171 179 187 198 187 157 164 174 164 178 186 191 245 241 211 196 196
97 93 87 84 83 88 91 90 94 96 95 103 115 121 123 115 100 102 113 127 135 132 123 134 150 154 154 154 159 162 163 168 174 168 155 131 138 145 155 164 163 162 155 152 159 168 182 184 185 180 156 181 196 204 199 198 188 214 254 243 214 199 196
83 90 95 95 85 81 89 78 67 66 72 77 85 92 104 106 107 114 126 135 137 137 142 150 153 154 154 154 151 153 166 165 164 161 146 139 144 149 152 160 165 159 156 160 173 184 188 184 167 179 197 192 193 198 198 182 178 186 212 206 225 193 204
80 82 83 84 88 87 84 82 73 66 55 61 70 78 84 99 104 117 120 127 132 141 144 148 153 153 148 146 154 162 165 166 165 153 142 141 144 149 154 160 165 166 169 174 184 192 198 190 187 189 207 209 208 191 184 179 219 154 149 166 179 175 158
68 75 83 87 90 94 96 106 109 105 98 90 99 105 114 124 125 128 133 138 143 148 154 154 152 147 146 155 159 162 162 164 154 138 135 138 147 153 169 168 171 178 182 180 190 196 200 204 188 207 206 196 177 186 186 180 191 216 137 141 156 133 133
61 71 80 81 78 91 105 108 111 116 118 117 126 125 132 134 142 149 152 150 159 159 157 153 147 146 152 156 159 160 159 157 157 144 144 149 163 168 175 177 183 186 181 190 195 195 192 191 198 197 177 174 177 187 187 178 185 199 181 159 156 159 173
52 49 49 56 44 45 95 103 100 106 119 120 136 142 152 153 151 134 142 155 162 162 158 154 151 154 159 159 159 157 160 158 158 156 154 163 167 175 182 185 186 186 183 190 197 194 193 188 192 180 179 186 189 193 182 172 183 200 186 174 167 170 163
44 48 47 52 47 35 45 67 106 127 135 139 155 157 166 166 163 154 153 155 164 161 152 146 153 161 168 166 157 159 164 164 156 152 161 167 178 177 176 182 188 186 181 190 193 197 198 205 199 187 188 202 192 178 172 184 207 198 191 177 179 171 175
31 37 44 47 44 40 58 39 73 80 56 72 79 99 107 73 108 131 133 146 157 155 149 150 163 172 169 164 161 160 165 169 164 155 152 155 148 78 59 345 224 209 173 41 1 325 225 217 210 215 219 210 188 174 177 189 199 204 169 142 144 169 179
27 34 42 57 58 89 107 85 70 69 68 93 136 153 134 116 122 140 161 159 160 164 160 163 170 165 160 161 169 169 169 176 177 169 149 147 126 122 88 58 52 28 350 102 25 2 358 336 277 298 220 178 124 66 198 198 155 105 116 121 120 90 71
19 19 36 35 113 103 104 100 101 102 127 143 134 107 108 138 160 174 174 170 170 172 169 168 158 154 156 164 180 181 179 181 183 178 169 157 152 158 146 139 61 49 48 48 37 22 10 355 295 292 313 249 155 90 55 80 101 116 125 126 119 108 103
16 6 1 5 19 29 32 326 226 219 213 173 173 169 177 184 182 181 179 171 173 179 172 166 154 159 167 177 179 174 186 190 188 189 186 164 162 159 164 157 150 124 61 51 45 44 41 30 31 79 125 122 131 133 92 72 98 124 129 123 121 119 116